This is the latest recevied weather packets stored in our database for station/object S57PNX-8. If no packets are shown the sender has not sent any weather packets the latest 10 day(s).
| Time | Temp. | Humidity | Pressure | Rain* | Wind** | Luminosity | Snow |
|---|---|---|---|---|---|---|---|
| 1777821563 | 20° C | 32% | 1023.5 hPa | - | - | - | - |
| 1777821004 | 19.44° C | 34% | 1023.5 hPa | - | - | - | - |
| 1777820158 | 18.89° C | 33% | 1023.6 hPa | - | - | - | - |
| 1777820105 | 18.89° C | 33% | 1023.6 hPa | - | - | - | - |
| 1777819205 | 18.89° C | 34% | 1023.7 hPa | - | - | - | - |
| 1777818306 | 18.33° C | 35% | 1023.8 hPa | - | - | - | - |
| 1777817405 | 17.78° C | 35% | 1023.8 hPa | - | - | - | - |
| 1777816506 | 17.78° C | 34% | 1023.9 hPa | - | - | - | - |
| 1777815608 | 17.78° C | 35% | 1023.9 hPa | - | - | - | - |
| 1777814709 | 17.78° C | 36% | 1024.1 hPa | - | - | - | - |
| 1777813810 | 17.78° C | 36% | 1024.1 hPa | - | - | - | - |
| 1777812912 | 17.78° C | 37% | 1024.2 hPa | - | - | - | - |
| 1777812013 | 17.22° C | 37% | 1024.3 hPa | - | - | - | - |
| 1777811108 | 17.22° C | 36% | 1024.3 hPa | - | - | - | - |
| 1777810210 | 17.22° C | 37% | 1024.3 hPa | - | - | - | - |
| 1777809311 | 17.22° C | 37% | 1024.5 hPa | - | - | - | - |
| 1777808413 | 16.67° C | 37% | 1024.4 hPa | - | - | - | - |
| 1777807514 | 16.67° C | 39% | 1024.4 hPa | - | - | - | - |
| 1777806610 | 16.67° C | 39% | 1024.6 hPa | - | - | - | - |
| 1777805711 | 16.11° C | 39% | 1024.6 hPa | - | - | - | - |
| 1777803914 | 16.11° C | 39% | 1024.7 hPa | - | - | - | - |
| 1777803015 | 16.11° C | 39% | 1024.8 hPa | - | - | - | - |
| 1777802114 | 15.56° C | 39% | 1025 hPa | - | - | - | - |
| 1777801215 | 15.56° C | 40% | 1025 hPa | - | - | - | - |
| 1777800317 | 15.56° C | 41% | 1025 hPa | - | - | - | - |
* Rain since midnight (hover to see other rain measurements)
** Current wind speed in m/s (hover to see current wind gust speed)